SR9NLI Weather Reports


Display with metric or nautical units.
time (UTC)temp
F
wind
direction
speed
MPH
gust
MPH
rain 1hr
in
rain 24hr
in
rain mn
in
humidity
%
barometer
mb
20260906105420 58 318 15.0 24.0 0.00 0.00 0.00 100 966.8
20260906105217 58 318 15.0 24.0 0.00 0.00 0.00 100 966.8
20260906105014 58 318 15.0 25.0 0.00 0.00 0.00 100 966.9
20260906104913 58 318 13.0 25.0 0.00 0.00 0.00 100 966.8
20260906104811 59 323 12.0 25.0 0.00 0.00 0.00 100 966.9
20260906104608 59 330 11.0 22.0 0.00 0.00 0.00 100 966.8
20260906104405 58 330 10.0 22.0 0.00 0.00 0.00 100 966.9
20260906104304 59 331 10.0 15.0 0.00 0.00 0.00 100 966.9
20260906104201 59 330 10.0 18.0 0.00 0.00 0.00 100 967.0
20260906103959 59 326 12.0 19.0 0.00 0.00 0.00 100 966.9
20260906103755 59 314 13.0 19.0 0.00 0.00 0.00 100 966.8
20260906103654 59 314 12.0 18.0 0.00 0.00 0.00 100 966.8
20260906103552 59 310 10.0 18.0 0.00 0.00 0.00 100 966.7
20260906103349 61 319 7.0 18.0 0.00 0.00 0.00 100 966.7
20260906103146 59 306 6.0 10.0 0.00 0.00 0.00 100 966.8
20260906102930 58 296 10.0 20.0 0.00 0.00 0.00 100 966.8
20260906102727 58 294 12.0 20.0 0.00 0.00 0.00 100 966.8
20260906102524 58 294 11.0 17.0 0.00 0.00 0.00 100 966.8
20260906102320 58 317 12.0 21.0 0.00 0.00 0.00 100 966.7
20260906102117 58 319 14.0 23.0 0.00 0.00 0.00 100 966.6
20260906101914 58 305 13.0 23.0 0.00 0.00 0.00 100 966.7
20260906101814 58 306 11.0 20.0 0.00 0.00 0.00 100 966.7
20260906101711 58 303 10.0 16.0 0.00 0.00 0.00 100 966.6
20260906101508 59 301 10.0 15.0 0.00 0.00 0.00 100 966.6
20260906101305 58 296 11.0 25.0 0.00 0.00 0.00 100 966.6
20260906101205 59 298 12.0 25.0 0.00 0.00 0.00 100 966.6
20260906101103 58 299 13.0 25.0 0.00 0.00 0.00 100 966.5
20260906100859 59 295 14.0 25.0 0.00 0.00 0.00 100 966.4
20260906100656 58 288 13.0 22.0 0.00 0.00 0.00 100 966.6
20260906100555 59 289 12.0 22.0 0.00 0.00 0.00 100 966.6
20260906100450 59 291 12.0 20.0 0.00 0.00 0.00 100 966.7
20260906100248 58 292 12.0 20.0 0.00 0.00 0.00 100 966.7
20260906100044 58 295 10.0 20.0 0.00 0.00 0.00 100 966.6
20260906095944 58 289 9.0 17.0 0.00 0.00 0.00 100 966.8
20260906095841 58 286 10.0 17.0 0.00 0.00 0.00 100 966.8
20260906095638 58 280 11.0 18.0 0.00 0.00 0.00 100 966.8
20260906095435 58 289 11.0 19.0 0.00 0.00 0.00 100 966.7
20260906095232 57 294 14.0 22.0 0.00 0.00 0.00 100 966.8
20260906095029 57 302 14.0 22.0 0.00 0.00 0.00 100 966.7
20260906094826 57 321 14.0 22.0 0.00 0.00 0.00 100 966.6
20260906094725 57 324 11.0 22.0 0.00 0.00 0.00 100 966.7
20260906094622 57 323 12.0 22.0 0.00 0.00 0.00 100 966.7
20260906094419 57 313 11.0 22.0 0.00 0.00 0.00 100 966.7
20260906094215 57 299 14.0 22.0 0.00 0.00 0.00 100 966.7
20260906094115 57 290 14.0 22.0 0.00 0.00 0.00 100 966.5
20260906094012 57 285 14.0 22.0 0.00 0.00 0.00 100 966.5
20260906093809 58 286 13.0 22.0 0.00 0.00 0.00 100 966.4
20260906093606 58 289 10.0 19.0 0.00 0.00 0.00 100 966.4
20260906093506 58 287 9.0 18.0 0.00 0.00 0.00 100 966.5
20260906093403 58 289 8.0 17.0 0.00 0.00 0.00 100 966.5
20260906093200 58 305 8.0 20.0 0.00 0.00 0.00 100 966.6
20260906092956 57 303 11.0 20.0 0.00 0.00 0.00 100 966.5
20260906092856 57 307 12.0 20.0 0.00 0.00 0.00 100 966.6
20260906092753 57 314 12.0 25.0 0.00 0.00 0.00 100 966.6
20260906092550 57 318 14.0 25.0 0.00 0.00 0.00 100 966.4
20260906092346 56 312 13.0 23.0 0.00 0.00 0.00 100 966.4
20260906092245 57 313 12.0 23.0 0.00 0.00 0.00 100 966.5
20260906092143 57 314 11.0 20.0 0.00 0.00 0.00 100 966.5
20260906091940 57 316 9.0 18.0 0.00 0.00 0.00 100 966.5
20260906091737 58 324 8.0 18.0 0.00 0.00 0.00 100 966.6
20260906091637 57 323 8.0 18.0 0.00 0.00 0.00 100 966.4
20260906091534 57 339 8.0 13.0 0.00 0.00 0.00 100 966.4
20260906091331 58 324 5.0 12.0 0.00 0.00 0.00 100 966.6
20260906091127 58 300 5.0 9.0 0.00 0.00 0.00 100 966.7
20260906091026 58 301 6.0 11.0 0.00 0.00 0.00 100 966.6
20260906090924 58 299 8.0 14.0 0.00 0.00 0.00 100 966.6
20260906090721 57 298 10.0 18.0 0.00 0.00 0.00 100 966.6
20260906090518 57 293 10.0 18.0 0.00 0.00 0.00 100 966.6
20260906090418 57 291 10.0 18.0 0.00 0.00 0.00 100 966.5
20260906090312 57 293 10.0 17.0 0.00 0.00 0.00 100 966.5
20260906090109 56 299 9.0 17.0 0.00 0.00 0.00 100 966.6
20260906085905 56 330 8.0 14.0 0.00 0.00 0.00 100 966.6
20260906085804 56 337 8.0 14.0 0.00 0.00 0.00 100 966.5
20260906085702 56 341 10.0 15.0 0.00 0.00 0.00 100 966.6
20260906085459 57 342 11.0 18.0 0.00 0.00 0.00 100 966.6
20260906085256 57 333 11.0 18.0 0.00 0.00 0.00 100 966.4
20260906085155 57 328 10.0 18.0 0.00 0.00 0.00 100 966.5
20260906085052 57 331 11.0 18.0 0.00 0.00 0.00 100 966.5
20260906084850 57 330 11.0 18.0 0.00 0.00 0.00 100 966.5
20260906084646 57 331 12.0 24.0 0.00 0.00 0.00 100 966.5
20260906084546 57 324 11.0 24.0 0.00 0.00 0.00 100 966.4
20260906084443 57 328 10.0 24.0 0.00 0.00 0.00 100 966.5
20260906084239 57 315 8.0 18.0 0.00 0.00 0.00 100 966.4
20260906084037 57 320 9.0 18.0 0.00 0.00 0.00 100 966.4
20260906083936 57 323 9.0 18.0 0.00 0.00 0.00 100 966.4
20260906083834 56 333 9.0 18.0 0.00 0.00 0.00 100 966.4
20260906083631 56 330 8.0 16.0 0.00 0.00 0.00 100 966.4
20260906083428 56 320 9.0 16.0 0.00 0.00 0.00 100 966.5
20260906083225 56 312 9.0 15.0 0.00 0.00 0.00 100 966.4
20260906083022 56 334 11.0 18.0 0.00 0.00 0.00 100 966.4
20260906082818 56 336 13.0 22.0 0.00 0.00 0.00 100 966.4
20260906082718 56 329 14.0 22.0 0.00 0.00 0.00 100 966.4
20260906082615 56 327 15.0 25.0 0.00 0.00 0.00 100 966.4
20260906082412 57 332 13.0 25.0 0.00 0.00 0.00 100 966.4
20260906082208 57 329 8.0 20.0 0.00 0.00 0.00 100 966.1
20260906082108 58 318 8.0 14.0 0.00 0.00 0.00 100 966.4
20260906082005 58 322 8.0 14.0 0.00 0.00 0.00 100 966.3
20260906081802 57 318 7.0 14.0 0.00 0.00 0.00 100 966.3
20260906081559 57 332 5.0 11.0 0.00 0.00 0.00 100 966.3
20260906081459 57 332 5.0 13.0 0.00 0.00 0.00 100 966.4
20260906081356 56 329 7.0 13.0 0.00 0.00 0.00 100 966.3
20260906081153 56 318 10.0 15.0 0.00 0.00 0.00 100 966.4
20260906080949 56 295 11.0 20.0 0.00 0.00 0.00 100 966.4
20260906080849 55 294 10.0 20.0 0.00 0.00 0.00 100 966.3
20260906080747 55 292 10.0 20.0 0.00 0.00 0.00 100 966.3
20260906080543 55 291 9.0 15.0 0.00 0.00 0.00 100 966.3
20260906080340 56 287 9.0 16.0 0.00 0.00 0.00 100 966.3
20260906080239 56 285 8.0 16.0 0.00 0.00 0.00 100 966.1
20260906080037 56 286 10.0 26.0 0.00 0.00 0.00 100 966.2
20260906075835 55 295 13.0 26.0 0.00 0.00 0.00 100 966.1
20260906075734 55 300 14.0 26.0 0.00 0.00 0.00 100 966.1
20260906075632 55 299 14.0 24.0 0.00 0.00 0.00 100 966.2
20260906075429 56 301 13.0 24.0 0.00 0.00 0.00 100 965.9
20260906075226 56 307 12.0 18.0 0.00 0.00 0.00 100 966.1
20260906075125 55 306 12.0 19.0 0.00 0.00 0.00 100 966.1
20260906075022 55 304 10.0 19.0 0.00 0.00 0.00 100 966.1
20260906074819 55 292 10.0 20.0 0.00 0.00 0.00 100 965.9
20260906074616 55 285 9.0 21.0 0.00 0.00 0.00 100 966.0
20260906074502 55 287 12.0 21.0 0.00 0.00 0.00 100 966.0
20260906074359 55 288 10.0 21.0 0.00 0.00 0.00 100 965.9
20260906074156 55 295 8.0 14.0 0.00 0.00 0.00 100 966.0
20260906073953 56 313 8.0 16.0 0.00 0.00 0.00 100 966.0
20260906073852 55 322 8.0 16.0 0.00 0.00 0.00 100 965.9
20260906073750 56 322 9.0 16.0 0.00 0.00 0.00 100 965.9
20260906073546 56 333 10.0 16.0 0.00 0.00 0.00 100 966.0
20260906073343 56 340 8.0 17.0 0.00 0.00 0.00 100 965.8
20260906073243 57 341 8.0 11.0 0.00 0.00 0.00 100 965.8
20260906073140 56 330 8.0 14.0 0.00 0.00 0.00 100 965.8
20260906072937 56 316 11.0 19.0 0.00 0.00 0.00 100 965.8
20260906072735 55 314 13.0 21.0 0.00 0.00 0.00 100 965.8
20260906072634 55 312 13.0 21.0 0.00 0.00 0.00 100 965.7
20260906072532 56 312 13.0 21.0 0.00 0.00 0.00 100 965.7
20260906072328 55 303 11.0 17.0 0.00 0.00 0.00 100 965.8
20260906072126 56 301 10.0 16.0 0.00 0.00 0.00 100 965.8
20260906072025 56 323 9.0 16.0 0.00 0.00 0.00 100 965.7
20260906071923 57 333 8.0 13.0 0.00 0.00 0.00 100 965.7
20260906071720 57 322 6.0 11.0 0.00 0.00 0.00 100 965.7
20260906071517 56 287 7.0 13.0 0.00 0.00 0.00 100 965.7
20260906071417 56 287 8.0 13.0 0.00 0.00 0.00 100 965.8
20260906071315 56 284 8.0 13.0 0.00 0.00 0.00 100 965.7
20260906071112 55 285 9.0 16.0 0.00 0.00 0.00 100 965.7
20260906070909 55 308 10.0 16.0 0.00 0.00 0.00 100 965.6
20260906070809 55 318 11.0 16.0 0.00 0.00 0.00 100 965.6
20260906070706 55 323 10.0 16.0 0.00 0.00 0.00 100 965.6
20260906070503 55 314 10.0 20.0 0.00 0.00 0.00 100 965.6
20260906070300 55 304 11.0 22.0 0.00 0.00 0.00 100 965.5
20260906070200 55 308 10.0 22.0 0.00 0.00 0.00 100 965.6
20260906070057 55 308 10.0 22.0 0.00 0.00 0.00 100 965.6
20260906065853 55 315 10.0 22.0 0.00 0.00 0.00 100 965.5
20260906065651 55 311 10.0 18.0 0.00 0.00 0.00 100 965.6
20260906065549 55 302 12.0 21.0 0.00 0.00 0.00 100 965.6
20260906065447 55 298 14.0 22.0 0.00 0.00 0.00 100 965.4
20260906065244 55 289 12.0 22.0 0.00 0.00 0.00 100 965.5
20260906065041 55 288 8.0 15.0 0.00 0.00 0.00 100 965.5
20260906064941 55 302 9.0 17.0 0.00 0.00 0.00 100 965.6
20260906064838 55 308 11.0 20.0 0.00 0.00 0.00 100 965.6
20260906064635 55 307 12.0 24.0 0.00 0.00 0.00 100 965.5
20260906064433 55 298 11.0 24.0 0.00 0.00 0.00 100 965.4
20260906064229 55 297 10.0 17.0 0.00 0.00 0.00 100 965.4
20260906064026 56 298 8.0 15.0 0.00 0.00 0.00 100 965.4
20260906063824 56 300 7.0 11.0 0.00 0.00 0.00 100 965.4
20260906063723 56 311 8.0 13.0 0.00 0.00 0.00 100 965.3
20260906063620 56 321 8.0 14.0 0.00 0.00 0.00 100 965.3
20260906063417 56 334 9.0 14.0 0.00 0.00 0.00 100 965.3
20260906063214 56 338 8.0 14.0 0.00 0.00 0.00 100 965.3
20260906063114 56 336 7.0 14.0 0.00 0.00 0.00 100 965.2
20260906063011 56 332 6.0 9.0 0.00 0.00 0.00 100 965.4
20260906062808 55 341 3.0 7.0 0.00 0.00 0.00 100 965.3
20260906062605 55 292 6.0 17.0 0.00 0.00 0.00 100 965.3
20260906062505 55 288 7.0 17.0 0.00 0.00 0.00 100 965.3
20260906062402 55 286 8.0 17.0 0.00 0.00 0.00 100 965.3
20260906062159 55 290 9.0 16.0 0.00 0.00 0.00 100 965.3
20260906061956 55 284 9.0 16.0 0.00 0.00 0.00 100 965.2
20260906061855 55 283 10.0 17.0 0.00 0.00 0.00 100 965.1
20260906061753 55 280 10.0 19.0 0.00 0.00 0.00 100 965.2
20260906061550 55 288 13.0 24.0 0.00 0.00 0.00 100 965.1
20260906061347 55 295 13.0 26.0 0.00 0.00 0.00 100 965.0
20260906061246 55 295 10.0 26.0 0.00 0.00 0.00 100 965.0
20260906061143 55 293 7.0 21.0 0.00 0.00 0.00 100 964.9
20260906060940 56 306 7.0 12.0 0.00 0.00 0.00 100 965.1
20260906060737 56 315 7.0 13.0 0.00 0.00 0.00 100 965.1
20260906060636 55 310 6.0 13.0 0.00 0.00 0.00 100 965.0
20260906060533 55 315 6.0 13.0 0.00 0.00 0.00 100 965.1
20260906060330 55 318 6.0 13.0 0.00 0.00 0.00 100 965.0
20260906060127 55 323 5.0 13.0 0.00 0.00 0.00 100 964.9
20260906060026 55 316 5.0 13.0 0.00 0.00 0.00 100 964.9
20260906055924 55 330 5.0 11.0 0.00 0.00 0.00 100 965.0
20260906055720 55 323 9.0 19.0 0.00 0.00 0.00 100 964.9
20260906055517 54 315 9.0 19.0 0.00 0.00 0.00 100 964.9
20260906055417 54 314 8.0 16.0 0.00 0.00 0.00 100 964.8
20260906055315 54 318 7.0 13.0 0.00 0.00 0.00 100 964.9
20260906055113 54 314 7.0 18.0 0.00 0.00 0.00 100 964.9
20260906054909 54 285 8.0 19.0 0.00 0.00 0.00 100 964.8
20260906054809 54 286 9.0 19.0 0.00 0.00 0.00 100 964.8
20260906054706 55 295 10.0 19.0 0.00 0.00 0.00 100 964.8
20260906054503 54 314 10.0 19.0 0.00 0.00 0.00 100 964.8
20260906054300 54 318 11.0 22.0 0.00 0.00 0.00 100 964.8
20260906054159 54 314 11.0 22.0 0.00 0.00 0.00 100 964.7
20260906054056 54 318 10.0 22.0 0.00 0.00 0.00 100 964.8
20260906053853 54 306 7.0 14.0 0.00 0.00 0.00 100 964.8
20260906053649 54 309 6.0 14.0 0.00 0.00 0.00 100 964.8
20260906053549 54 314 6.0 14.0 0.00 0.00 0.00 100 964.7
20260906053447 54 318 5.0 11.0 0.00 0.00 0.00 100 964.8
20260906053244 54 305 6.0 11.0 0.00 0.00 0.00 100 964.8
20260906053041 54 307 6.0 13.0 0.00 0.00 0.00 100 964.7
20260906052940 54 309 6.0 13.0 0.00 0.00 0.00 100 964.7
20260906052838 54 317 6.0 13.0 0.00 0.00 0.00 100 964.8
20260906052635 54 313 6.0 10.0 0.00 0.00 0.00 100 964.7
20260906052431 54 300 8.0 16.0 0.00 0.00 0.00 100 964.6
20260906052228 54 296 10.0 16.0 0.00 0.00 0.00 100 964.6
20260906052025 54 300 10.0 16.0 0.00 0.00 0.00 100 964.6
20260906051822 54 311 8.0 13.0 0.00 0.00 0.00 100 964.6
20260906051721 54 317 8.0 14.0 0.00 0.00 0.00 100 964.6
20260906051619 54 324 7.0 14.0 0.00 0.00 0.00 100 964.7
20260906051415 53 326 6.0 14.0 0.00 0.00 0.00 100 964.6
20260906051211 53 305 4.0 7.0 0.00 0.00 0.00 100 964.7
20260906051111 54 304 4.0 8.0 0.00 0.00 0.00 100 964.7
20260906051009 54 308 5.0 10.0 0.00 0.00 0.00 100 964.7
20260906050805 53 313 7.0 12.0 0.00 0.00 0.00 100 964.7
20260906050550 53 303 7.0 14.0 0.00 0.00 0.00 100 964.7
20260906050449 54 291 6.0 14.0 0.00 0.00 0.00 100 964.6
20260906050347 54 288 6.0 14.0 0.00 0.00 0.00 100 964.6
20260906050144 54 284 9.0 21.0 0.00 0.00 0.00 100 964.6
20260906045940 54 293 12.0 27.0 0.00 0.00 0.00 100 964.6
20260906045840 54 300 12.0 27.0 0.00 0.00 0.00 100 964.4
20260906045737 54 309 11.0 22.0 0.00 0.00 0.00 100 964.5
20260906045535 54 301 10.0 15.0 0.00 0.00 0.00 100 964.5
20260906045331 54 292 10.0 18.0 0.00 0.00 0.00 100 964.5
20260906045128 54 289 11.0 22.0 0.00 0.00 0.00 100 964.4
20260906044925 54 289 11.0 22.0 0.00 0.00 0.00 100 964.4
20260906044722 54 294 10.0 18.0 0.00 0.00 0.00 100 964.4
20260906044621 53 298 8.0 15.0 0.00 0.00 0.00 100 964.5
20260906044519 53 300 9.0 14.0 0.00 0.00 0.00 100 964.3
20260906044316 53 299 8.0 16.0 0.00 0.00 0.00 100 964.4
20260906044113 53 289 8.0 16.0 0.00 0.00 0.00 100 964.5
20260906044013 53 288 6.0 16.0 0.00 0.00 0.00 100 964.4
20260906043910 53 286 5.0 13.0 0.00 0.00 0.00 100 964.5
20260906043707 53 291 4.0 8.0 0.00 0.00 0.00 100 964.4
20260906043504 53 301 4.0 12.0 0.00 0.00 0.00 100 964.5
20260906043404 53 310 4.0 12.0 0.00 0.00 0.00 100 964.4
20260906043301 53 302 4.0 12.0 0.00 0.00 0.00 100 964.6
20260906043058 53 297 4.0 10.0 0.00 0.00 0.00 100 964.5
20260906042855 53 295 5.0 10.0 0.00 0.00 0.00 100 964.4
20260906042755 53 295 5.0 9.0 0.00 0.00 0.00 100 964.5
20260906042652 53 289 6.0 14.0 0.00 0.00 0.00 100 964.5
20260906042449 53 306 7.0 16.0 0.00 0.00 0.00 100 964.4
20260906042246 53 324 8.0 16.0 0.00 0.00 0.00 100 964.4
20260906042145 53 328 7.0 14.0 0.00 0.00 0.00 100 964.4
20260906042042 53 320 6.0 11.0 0.00 0.00 0.00 100 964.5
20260906041839 53 311 7.0 14.0 0.00 0.00 0.00 100 964.4
20260906041636 53 295 9.0 18.0 0.00 0.00 0.00 100 964.5
20260906041535 53 297 10.0 18.0 0.00 0.00 0.00 100 964.3
20260906041432 53 301 11.0 21.0 0.00 0.00 0.00 100 964.3
20260906041230 53 310 12.0 22.0 0.00 0.00 0.00 100 964.3
20260906041027 53 310 10.0 22.0 0.00 0.00 0.00 100 964.5
20260906040926 53 301 8.0 22.0 0.00 0.00 0.00 100 964.3
20260906040824 53 302 8.0 15.0 0.00 0.00 0.00 100 964.3
20260906040621 53 294 9.0 17.0 0.00 0.00 0.00 100 964.4
20260906040418 53 285 11.0 27.0 0.00 0.00 0.00 100 964.4
20260906040318 53 288 10.0 27.0 0.00 0.00 0.00 100 964.2
20260906040215 53 289 8.0 27.0 0.00 0.00 0.00 100 964.3
20260906040011 53 299 6.0 14.0 0.00 0.00 0.00 100 964.4
20260906035808 53 289 7.0 15.0 0.00 0.00 0.00 100 964.2
20260906035708 53 289 8.0 19.0 0.00 0.00 0.00 100 964.2
20260906035606 53 284 11.0 20.0 0.00 0.00 0.00 100 964.2
20260906035403 53 286 12.0 20.0 0.00 0.00 0.00 100 964.3
20260906035200 53 296 10.0 20.0 0.00 0.00 0.00 100 964.2
20260906035059 53 300 7.0 20.0 0.00 0.00 0.00 100 964.2
20260906034957 53 305 7.0 11.0 0.00 0.00 0.00 100 964.2
20260906034754 53 304 8.0 14.0 0.00 0.00 0.00 100 964.3
20260906034550 54 302 12.0 22.0 0.00 0.00 0.00 100 964.1
20260906034449 53 299 12.0 22.0 0.00 0.00 0.00 100 964.1
20260906034347 54 294 12.0 22.0 0.00 0.00 0.00 100 964.2
20260906034143 54 284 10.0 26.0 0.00 0.00 0.00 100 964.1
20260906033940 53 286 9.0 26.0 0.00 0.00 0.00 100 964.0
20260906033839 53 286 9.0 14.0 0.00 0.00 0.00 100 964.2
20260906033737 53 287 8.0 14.0 0.00 0.00 0.00 100 964.1
20260906033534 53 300 9.0 26.0 0.00 0.00 0.00 100 964.1
20260906033331 53 300 11.0 26.0 0.00 0.00 0.00 100 964.0
20260906033230 54 297 10.0 26.0 0.00 0.00 0.00 100 964.0
20260906033128 53 287 9.0 26.0 0.00 0.00 0.00 100 963.9
20260906032925 54 292 8.0 14.0 0.00 0.00 0.00 100 964.0
20260906032722 53 297 8.0 14.0 0.00 0.00 0.00 100 964.0
20260906032621 54 293 7.0 12.0 0.00 0.00 0.00 100 964.1
20260906032519 53 290 6.0 10.0 0.00 0.00 0.00 100 964.0
20260906032315 53 296 6.0 9.0 0.00 0.00 0.00 100 964.0
20260906032112 53 305 7.0 13.0 0.00 0.00 0.00 100 963.9
20260906032011 54 299 8.0 19.0 0.00 0.00 0.00 100 964.0
20260906031908 54 289 10.0 19.0 0.00 0.00 0.00 100 963.8
20260906031706 54 281 11.0 23.0 0.00 0.00 0.00 100 964.0
20260906031502 54 285 11.0 23.0 0.00 0.00 0.00 100 963.7
20260906031401 54 287 10.0 18.0 0.00 0.00 0.00 100 963.9
20260906031259 54 287 8.0 17.0 0.00 0.00 0.00 100 963.9
20260906031055 54 288 8.0 13.0 0.00 0.00 0.00 100 963.7
20260906030852 54 308 10.0 20.0 0.00 0.00 0.00 100 963.9
20260906030751 54 306 10.0 18.0 0.00 0.00 0.00 100 963.8
20260906030649 54 301 12.0 20.0 0.00 0.00 0.00 100 963.7
20260906030446 54 294 10.0 23.0 0.00 0.00 0.00 100 963.8
20260906030242 53 283 8.0 17.0 0.00 0.00 0.00 100 963.7
20260906030141 53 283 6.0 14.0 0.00 0.00 0.00 100 963.8
20260906030039 53 289 7.0 16.0 0.00 0.00 0.00 100 963.8
20260906025836 53 311 8.0 16.0 0.00 0.00 0.00 100 963.7
20260906025633 54 299 8.0 14.0 0.00 0.00 0.00 100 963.6
20260906025532 54 287 8.0 17.0 0.00 0.00 0.00 100 963.7
20260906025430 54 282 9.0 16.0 0.00 0.00 0.00 100 963.7
20260906025227 54 286 12.0 23.0 0.00 0.00 0.00 100 963.7
20260906025023 54 292 11.0 23.0 0.00 0.00 0.00 100 963.5
20260906024922 54 299 8.0 23.0 0.00 0.00 0.00 100 963.6
20260906024820 54 297 7.0 14.0 0.00 0.00 0.00 100 963.6
20260906024617 54 291 6.0 12.0 0.00 0.00 0.00 100 963.6
20260906024414 54 289 5.0 11.0 0.00 0.00 0.00 100 963.7
20260906024313 54 295 5.0 11.0 0.00 0.00 0.00 100 963.7
20260906024211 54 291 5.0 11.0 0.00 0.00 0.00 100 963.5
20260906024009 54 291 7.0 17.0 0.00 0.00 0.00 100 963.6
20260906023806 54 285 10.0 22.0 0.00 0.00 0.00 100 963.6
20260906023704 54 284 10.0 23.0 0.00 0.00 0.00 100 963.6
20260906023602 54 282 10.0 23.0 0.00 0.00 0.00 100 963.5
20260906023359 54 283 10.0 23.0 0.00 0.00 0.00 100 963.4
20260906023155 54 278 10.0 20.0 0.00 0.00 0.00 100 963.4
20260906023055 54 280 10.0 20.0 0.00 0.00 0.00 100 963.5
20260906022952 54 279 9.0 20.0 0.00 0.00 0.00 100 963.5
20260906022749 54 264 5.0 17.0 0.00 0.00 0.00 100 963.5
20260906022537 54 283 5.0 14.0 0.00 0.00 0.00 100 963.4
20260906022436 54 292 7.0 14.0 0.00 0.00 0.00 100 963.5
20260906022334 55 299 7.0 14.0 0.00 0.00 0.00 100 963.4
20260906022131 54 299 8.0 14.0 0.00 0.00 0.00 100 963.5
20260906021928 54 291 8.0 15.0 0.00 0.00 0.00 100 963.4
20260906021827 54 292 10.0 16.0 0.00 0.00 0.00 100 963.5
20260906021724 54 290 11.0 17.0 0.00 0.00 0.00 100 963.5
20260906021521 55 285 12.0 22.0 0.00 0.00 0.00 100 963.4
20260906021318 55 285 12.0 22.0 0.00 0.00 0.00 100 963.4
20260906021217 55 283 14.0 26.0 0.00 0.00 0.00 100 963.5
20260906021114 55 284 14.0 26.0 0.00 0.00 0.00 100 963.5
20260906020911 55 288 14.0 26.0 0.00 0.00 0.00 100 963.4
20260906020709 55 295 11.0 20.0 0.00 0.00 0.00 100 963.4
20260906020608 55 296 12.0 21.0 0.00 0.00 0.00 100 963.4
20260906020505 55 297 13.0 23.0 0.00 0.00 0.00 100 963.3
20260906020302 55 299 13.0 23.0 0.00 0.00 0.00 100 963.3
20260906020059 55 299 10.0 19.0 0.00 0.00 0.00 100 963.3
20260906015959 55 295 10.0 19.0 0.00 0.00 0.00 100 963.1
20260906015856 55 287 10.0 19.0 0.00 0.00 0.00 100 963.1
20260906015653 55 278 8.0 16.0 0.00 0.00 0.00 100 963.3
20260906015450 55 280 9.0 21.0 0.00 0.00 0.00 100 963.1
20260906015349 55 285 12.0 25.0 0.00 0.00 0.00 100 963.3
20260906015247 55 288 14.0 25.0 0.00 0.00 0.00 100 963.1
20260906015044 55 289 11.0 25.0 0.00 0.00 0.00 100 963.1
20260906014842 55 294 7.0 18.0 0.00 0.00 0.00 100 963.1
20260906014740 55 288 6.0 11.0 0.00 0.00 0.00 100 963.1
20260906014638 55 289 6.0 12.0 0.00 0.00 0.00 100 963.3
20260906014435 55 289 7.0 14.0 0.00 0.00 0.00 100 963.2
20260906014232 55 288 8.0 20.0 0.00 0.00 0.00 100 963.2
20260906014132 55 289 8.0 20.0 0.00 0.00 0.00 100 963.2
20260906014029 55 287 7.0 20.0 0.00 0.00 0.00 100 963.3
20260906013825 55 291 7.0 14.0 0.00 0.00 0.00 100 963.2
20260906013622 55 298 8.0 20.0 0.00 0.00 0.00 100 963.1
20260906013522 55 302 12.0 26.0 0.00 0.00 0.00 100 963.1
20260906013419 55 303 12.0 26.0 0.00 0.00 0.00 100 963.2
20260906013216 56 305 12.0 26.0 0.00 0.00 0.00 100 963.1
20260906013013 55 299 10.0 19.0 0.00 0.00 0.00 100 963.1
20260906012912 55 298 10.0 19.0 0.00 0.00 0.00 100 963.1
20260906012810 55 295 10.0 19.0 0.00 0.00 0.00 100 963.1
20260906012607 55 269 7.0 19.0 0.00 0.00 0.00 100 963.1
20260906012403 55 256 6.0 13.0 0.00 0.00 0.00 100 963.2
20260906012306 55 271 7.0 13.0 0.00 0.00 0.00 100 963.2
20260906012200 55 283 8.0 14.0 0.00 0.00 0.00 100 963.2
20260906011958 55 290 10.0 19.0 0.00 0.00 0.00 100 963.2
20260906011755 55 290 9.0 19.0 0.00 0.00 0.00 100 963.0
20260906011655 55 295 9.0 19.0 0.00 0.00 0.00 100 963.1
20260906011551 55 299 8.0 18.0 0.00 0.00 0.00 100 963.1
20260906011348 55 293 7.0 13.0 0.00 0.00 0.00 100 963.2
20260906011145 55 287 6.0 12.0 0.00 0.00 0.00 100 963.2
20260906011044 55 285 6.0 12.0 0.00 0.00 0.00 100 963.3
20260906010942 55 300 6.0 12.0 0.00 0.00 0.00 100 963.1
20260906010739 55 295 9.0 16.0 0.00 0.00 0.00 100 963.1
20260906010535 55 291 8.0 16.0 0.00 0.00 0.00 100 963.1
20260906010332 55 300 8.0 16.0 0.00 0.00 0.00 100 963.1
20260906010129 55 292 8.0 18.0 0.00 0.00 0.00 100 963.1
20260906005927 55 285 8.0 18.0 0.00 0.00 0.00 100 963.2
20260906005826 55 295 9.0 18.0 0.00 0.00 0.00 100 963.1
20260906005723 55 298 10.0 18.0 0.00 0.00 0.00 100 963.1
20260906005520 55 297 13.0 18.0 0.00 0.00 0.00 100 963.1
20260906005317 55 293 12.0 18.0 0.00 0.00 0.00 100 963.0
20260906005216 55 290 10.0 18.0 0.00 0.00 0.00 100 963.0
20260906005114 55 291 10.0 18.0 0.00 0.00 0.00 100 963.1
20260906004910 55 294 11.0 18.0 0.00 0.00 0.00 100 962.9
20260906004707 55 294 9.0 18.0 0.00 0.00 0.00 100 962.9
20260906004606 55 290 8.0 15.0 0.00 0.00 0.00 100 963.0
20260906004504 55 290 8.0 15.0 0.00 0.00 0.00 100 963.1
20260906004301 55 288 12.0 27.0 0.00 0.00 0.00 100 962.9
20260906004058 55 285 13.0 27.0 0.00 0.00 0.00 100 962.9
20260906003957 55 289 14.0 27.0 0.00 0.00 0.00 100 962.9
20260906003855 55 292 14.0 22.0 0.00 0.00 0.00 100 962.9
20260906003652 55 300 14.0 22.0 0.00 0.00 0.00 100 963.0
20260906003448 55 295 12.0 20.0 0.00 0.00 0.00 100 962.8
20260906003347 55 293 10.0 20.0 0.00 0.00 0.00 100 963.0
20260906003245 55 290 10.0 20.0 0.00 0.00 0.00 100 962.9
20260906003042 55 289 10.0 16.0 0.00 0.00 0.00 100 963.1
20260906002839 55 292 11.0 23.0 0.00 0.00 0.00 100 962.9
20260906002738 55 286 11.0 23.0 0.00 0.00 0.00 100 963.0
20260906002636 55 289 12.0 23.0 0.00 0.00 0.00 100 963.0
20260906002433 55 285 11.0 24.0 0.00 0.00 0.00 100 962.9
20260906002230 55 290 13.0 25.0 0.00 0.00 0.00 100 962.9
20260906002129 55 290 12.0 25.0 0.00 0.00 0.00 100 963.0
20260906002026 55 288 14.0 25.0 0.00 0.00 0.00 100 963.1
20260906001824 55 283 11.0 23.0 0.00 0.00 0.00 100 962.9
20260906001620 55 280 11.0 22.0 0.00 0.00 0.00 100 963.0
20260906001520 55 273 10.0 22.0 0.00 0.00 0.00 100 962.7
20260906001418 55 270 9.0 22.0 0.00 0.00 0.00 100 962.9
20260906001214 55 274 9.0 22.0 0.00 0.00 0.00 100 962.7
20260906001011 55 283 10.0 22.0 0.00 0.00 0.00 100 963.0
20260906000911 55 288 11.0 22.0 0.00 0.00 0.00 100 963.0
20260906000809 55 289 12.0 18.0 0.00 0.00 0.00 100 963.0
20260906000605 55 292 10.0 17.0 0.00 0.00 0.00 100 963.0
20260906000403 54 288 8.0 14.0 0.00 0.00 0.00 100 963.2
20260906000303 54 283 8.0 16.0 0.00 0.00 0.00 100 963.3
20260906000159 54 275 8.0 16.0 0.00 0.00 0.00 100 963.2
20260905235956 54 269 8.0 16.0 0.00 0.00 0.00 100 963.0
20260905235753 54 284 8.0 15.0 0.00 0.00 0.00 100 963.1
20260905235653 54 287 8.0 19.0 0.00 0.00 0.00 100 963.2
20260905235550 53 289 10.0 19.0 0.00 0.00 0.00 100 963.1
20260905235347 54 289 12.0 19.0 0.00 0.00 0.00 100 963.2
20260905235144 53 289 11.0 17.0 0.00 0.00 0.00 100 963.2
20260905235043 53 296 12.0 22.0 0.00 0.00 0.00 100 963.2
20260905234941 53 303 11.0 22.0 0.00 0.00 0.00 100 963.3
20260905234725 54 304 11.0 22.0 0.00 0.00 0.00 100 963.2
20260905234521 54 291 12.0 20.0 0.00 0.00 0.00 100 963.3
20260905234421 55 286 12.0 20.0 0.00 0.00 0.00 100 963.3
20260905234319 55 285 12.0 20.0 0.00 0.00 0.00 100 963.3
20260905234115 55 287 13.0 24.0 0.00 0.00 0.00 100 963.3
20260905233912 55 292 14.0 24.0 0.00 0.00 0.00 100 963.3
20260905233812 55 296 12.0 24.0 0.00 0.00 0.00 100 963.3
20260905233709 55 293 12.0 21.0 0.00 0.00 0.00 100 963.1
20260905233506 55 287 10.0 21.0 0.00 0.00 0.00 100 963.1
20260905233303 55 289 12.0 21.0 0.00 0.00 0.00 100 963.2
20260905233203 55 296 14.0 24.0 0.00 0.00 0.00 100 963.2
20260905233100 55 298 16.0 30.0 0.00 0.00 0.00 100 963.1
20260905232857 55 294 17.0 30.0 0.00 0.00 0.00 100 963.0
20260905232654 55 292 13.0 30.0 0.00 0.00 0.00 100 963.1
20260905232553 55 293 12.0 17.0 0.00 0.00 0.00 100 963.2
20260905232450 55 297 12.0 21.0 0.00 0.00 0.00 100 963.1
20260905232248 55 296 11.0 21.0 0.00 0.00 0.00 100 963.2
20260905232045 54 300 9.0 21.0 0.00 0.00 0.00 100 963.1
20260905231944 54 301 8.0 13.0 0.00 0.00 0.00 100 963.1
20260905231841 54 301 8.0 13.0 0.00 0.00 0.00 100 963.1
20260905231638 54 305 7.0 10.0 0.00 0.00 0.00 100 963.1
20260905231435 54 300 7.0 12.0 0.00 0.00 0.00 100 963.1
20260905231335 54 292 8.0 16.0 0.00 0.00 0.00 100 963.1
20260905231232 54 293 10.0 16.0 0.00 0.00 0.00 100 963.0
20260905231029 54 296 11.0 16.0 0.00 0.00 0.00 100 963.0
20260905230825 54 299 13.0 21.0 0.00 0.00 0.00 100 963.1
20260905230725 55 298 14.0 21.0 0.00 0.00 0.00 100 963.1
20260905230622 55 299 14.0 21.0 0.00 0.00 0.00 100 963.2
20260905230419 55 297 14.0 23.0 0.00 0.00 0.00 100 963.1
20260905230216 56 293 13.0 23.0 0.00 0.00 0.00 100 963.0
20260905230114 57 293 13.0 23.0 0.00 0.00 0.00 100 962.9
20260905230012 57 290 13.0 20.0 0.00 0.00 0.00 100 963.0
20260905225809 57 293 13.0 20.0 0.00 0.00 0.00 100 962.9
20260905225606 57 300 11.0 18.0 0.00 0.00 0.00 100 962.9
20260905225505 57 302 10.0 16.0 0.00 0.00 0.00 100 962.9
20260905225403 57 299 10.0 16.0 0.00 0.00 0.00 100 962.9
20260905225159 57 289 8.0 13.0 0.00 0.00 0.00 100 962.9
20260905224956 57 287 8.0 15.0 0.00 0.00 0.00 100 962.8
20260905224856 57 286 9.0 16.0 0.00 0.00 0.00 100 962.9
20260905224753 57 286 10.0 16.0 0.00 0.00 0.00 100 962.9
20260905224550 57 288 12.0 18.0 0.00 0.00 0.00 100 962.9
20260905224346 57 288 11.0 18.0 0.00 0.00 0.00 100 963.0
20260905224246 57 290 12.0 18.0 0.00 0.00 0.00 100 963.0
20260905224143 57 291 11.0 16.0 0.00 0.00 0.00 100 963.0
20260905223940 57 295 11.0 17.0 0.00 0.00 0.00 100 963.0
20260905223737 57 293 11.0 17.0 0.00 0.00 0.00 100 962.9
20260905223636 56 292 11.0 18.0 0.00 0.00 0.00 100 963.1
20260905223535 56 290 11.0 18.0 0.00 0.00 0.00 100 963.1
20260905223332 56 295 10.0 15.0 0.00 0.00 0.00 100 963.0
20260905223129 57 298 10.0 17.0 0.00 0.00 0.00 100 963.1
20260905223028 57 298 10.0 17.0 0.00 0.00 0.00 100 963.0
20260905222925 57 303 11.0 18.0 0.00 0.00 0.00 100 963.0
20260905222722 57 304 12.0 19.0 0.00 0.00 0.00 100 962.9
20260905222519 57 298 12.0 19.0 0.00 0.00 0.00 100 962.9
20260905222418 57 301 10.0 16.0 0.00 0.00 0.00 100 962.9
20260905222315 57 301 10.0 13.0 0.00 0.00 0.00 100 963.0
20260905222113 57 305 11.0 17.0 0.00 0.00 0.00 100 962.9
20260905221910 57 302 11.0 17.0 0.00 0.00 0.00 100 962.9
20260905221809 57 306 10.0 14.0 0.00 0.00 0.00 100 962.8
20260905221707 57 312 10.0 14.0 0.00 0.00 0.00 100 963.0
20260905221503 57 327 11.0 18.0 0.00 0.00 0.00 100 962.9
20260905221300 58 323 13.0 20.0 0.00 0.00 0.00 100 962.9
20260905221159 58 321 13.0 20.0 0.00 0.00 0.00 100 962.9
20260905221057 58 320 14.0 21.0 0.00 0.00 0.00 100 962.8
20260905220854 58 323 14.0 21.0 0.00 0.00 0.00 100 962.8
20260905220651 57 329 12.0 19.0 0.00 0.00 0.00 100 962.8
20260905220550 58 332 12.0 19.0 0.00 0.00 0.00 100 962.7
20260905220448 57 336 12.0 19.0 0.00 0.00 0.00 100 962.9
20260905220244 57 339 12.0 19.0 0.00 0.00 0.00 100 962.8
20260905220041 57 339 10.0 19.0 0.00 0.00 0.00 100 962.7
20260905215940 57 339 11.0 19.0 0.00 0.00 0.00 100 962.6
20260905215837 58 340 12.0 23.0 0.00 0.00 0.00 100 962.6
20260905215634 58 337 13.0 23.0 0.00 0.00 0.00 100 962.6
20260905215431 59 332 12.0 21.0 0.00 0.00 0.00 100 962.6
20260905215331 59 327 12.0 21.0 0.00 0.00 0.00 100 962.4
20260905215228 60 327 11.0 18.0 0.00 0.00 0.00 100 962.3
20260905215025 60 328 10.0 16.0 0.00 0.00 0.00 100 962.3
20260905214822 61 322 9.0 16.0 0.00 0.00 0.00 100 962.2
20260905214721 61 314 9.0 14.0 0.00 0.00 0.00 100 962.3
20260905214619 61 301 10.0 18.0 0.00 0.00 0.00 100 962.3
20260905214416 61 293 12.0 22.0 0.00 0.00 0.00 100 962.2
20260905214212 61 289 14.0 24.0 0.00 0.00 0.00 100 962.2
20260905214112 62 286 14.0 24.0 0.00 0.00 0.00 100 962.0
20260905214009 62 288 13.0 24.0 0.00 0.00 0.00 100 961.9
20260905213806 62 291 11.0 20.0 0.00 0.00 0.00 100 962.1
20260905213602 61 298 11.0 20.0 0.00 0.00 0.00 100 962.1
20260905213501 61 298 9.0 15.0 0.00 0.00 0.00 100 962.1
20260905213359 61 298 9.0 15.0 0.00 0.00 0.00 100 962.0
20260905213156 61 288 9.0 20.0 0.00 0.00 0.00 100 962.2
20260905212953 62 283 9.0 20.0 0.00 0.00 0.00 100 962.0
20260905212852 62 280 8.0 20.0 0.00 0.00 0.00 100 961.9
20260905212750 62 280 9.0 18.0 0.00 0.00 0.00 100 962.1
20260905212546 62 275 10.0 18.0 0.00 0.00 0.00 100 962.0
20260905212344 62 290 11.0 26.0 0.00 0.00 0.00 100 961.9
20260905212243 61 294 11.0 26.0 0.00 0.00 0.00 100 962.0
20260905212140 61 296 11.0 26.0 0.00 0.00 0.00 100 962.0
20260905211937 62 294 10.0 18.0 0.00 0.00 0.00 100 961.8
20260905211735 61 295 10.0 20.0 0.00 0.00 0.00 100 962.0
20260905211634 61 297 10.0 20.0 0.00 0.00 0.00 100 961.8
20260905211532 61 299 11.0 20.0 0.00 0.00 0.00 100 961.8
20260905211329 62 291 13.0 23.0 0.00 0.00 0.00 100 961.8
20260905211126 62 285 15.0 26.0 0.00 0.00 0.00 100 961.7
20260905211025 62 286 16.0 26.0 0.00 0.00 0.00 100 961.7
20260905210923 62 292 15.0 26.0 0.00 0.00 0.00 100 961.7
20260905210709 62 298 15.0 26.0 0.00 0.00 0.00 100 961.5
20260905210506 62 290 16.0 26.0 0.00 0.00 0.00 100 961.7
20260905210405 62 289 16.0 26.0 0.00 0.00 0.00 100 961.6
20260905210303 62 288 14.0 26.0 0.00 0.00 0.00 100 961.7
20260905210059 62 287 12.0 24.0 0.00 0.00 0.00 100 961.6
20260905205856 62 289 12.0 20.0 0.00 0.00 0.00 100 961.7
20260905205755 62 294 10.0 20.0 0.00 0.00 0.00 100 961.8
20260905205654 62 292 11.0 20.0 0.00 0.00 0.00 100 961.7
20260905205450 62 287 10.0 16.0 0.00 0.00 0.00 100 961.6
20260905205247 62 293 11.0 21.0 0.00 0.00 0.00 100 961.5
20260905205146 62 299 12.0 21.0 0.00 0.00 0.00 100 961.5
20260905205043 62 301 11.0 21.0 0.00 0.00 0.00 100 961.7
20260905204840 62 292 8.0 21.0 0.00 0.00 0.00 100 961.5
20260905204637 62 278 7.0 14.0 0.00 0.00 0.00 100 961.7
20260905204536 62 276 7.0 14.0 0.00 0.00 0.00 100 961.5
20260905204433 62 273 7.0 14.0 0.00 0.00 0.00 100 961.6
20260905204231 62 272 7.0 16.0 0.00 0.00 0.00 100 961.6
20260905204028 62 282 9.0 16.0 0.00 0.00 0.00 100 961.5
20260905203928 62 282 9.0 16.0 0.00 0.00 0.00 100 961.5
20260905203825 62 285 9.0 16.0 0.00 0.00 0.00 100 961.5
20260905203621 62 284 9.0 16.0 0.00 0.00 0.00 100 961.4
20260905203418 62 288 10.0 16.0 0.00 0.00 0.00 100 961.5
20260905203317 62 296 12.0 22.0 0.00 0.00 0.00 100 961.4
20260905203215 62 299 13.0 24.0 0.00 0.00 0.00 100 961.6
20260905203011 63 297 14.0 28.0 0.00 0.00 0.00 100 961.3
20260905202808 62 288 8.0 28.0 0.00 0.00 0.00 100 961.4
20260905202708 62 285 6.0 28.0 0.00 0.00 0.00 100 961.5
20260905202605 62 285 5.0 15.0 0.00 0.00 0.00 100 961.5
20260905202402 62 288 8.0 15.0 0.00 0.00 0.00 100 961.4
20260905202159 62 285 6.0 12.0 0.00 0.00 0.00 100 961.5
20260905202059 62 272 6.0 12.0 0.00 0.00 0.00 100 961.2
20260905201956 62 267 7.0 16.0 0.00 0.00 0.00 100 961.3
20260905201752 62 274 10.0 18.0 0.00 0.00 0.00 100 961.4
20260905201549 63 287 12.0 18.0 0.00 0.00 0.00 100 961.2
20260905201448 63 285 14.0 24.0 0.00 0.00 0.00 100 961.2
20260905201345 63 284 13.0 24.0 0.00 0.00 0.00 100 961.3
20260905201142 63 269 11.0 24.0 0.00 0.00 0.00 100 961.2
20260905200940 63 266 11.0 22.0 0.00 0.00 0.00 100 961.1
20260905200839 63 265 9.0 18.0 0.00 0.00 0.00 100 961.3
20260905200736 62 268 9.0 18.0 0.00 0.00 0.00 100 961.4
20260905200533 63 265 9.0 18.0 0.00 0.00 0.00 100 961.2
20260905200330 63 269 10.0 19.0 0.00 0.00 0.00 100 961.3
20260905200230 63 267 10.0 19.0 0.00 0.00 0.00 100 961.3
20260905200127 63 266 10.0 19.0 0.00 0.00 0.00 100 961.4
20260905195924 63 279 10.0 20.0 0.00 0.00 0.00 100 961.3
20260905195721 63 283 10.0 20.0 0.00 0.00 0.00 100 961.4
20260905195620 63 282 10.0 20.0 0.00 0.00 0.00 100 961.3
20260905195518 63 280 9.0 20.0 0.00 0.00 0.00 100 961.3
20260905195315 63 271 9.0 23.0 0.00 0.00 0.00 100 961.3
20260905195112 63 261 8.0 23.0 0.00 0.00 0.00 100 961.3
20260905195011 63 270 9.0 22.0 0.00 0.00 0.00 100 961.3
20260905194908 63 274 9.0 22.0 0.00 0.00 0.00 100 961.3
20260905194705 63 278 9.0 21.0 0.00 0.00 0.00 100 961.1
20260905194502 63 266 10.0 25.0 0.00 0.00 0.00 100 961.2
20260905194401 63 268 10.0 25.0 0.00 0.00 0.00 100 961.1
20260905194259 63 276 10.0 25.0 0.00 0.00 0.00 100 961.2
20260905194056 63 279 9.0 18.0 0.00 0.00 0.00 100 961.2
20260905193852 63 274 8.0 18.0 0.00 0.00 0.00 100 961.1
20260905193752 63 267 7.0 18.0 0.00 0.00 0.00 100 961.1
20260905193649 63 268 6.0 18.0 0.00 0.00 0.00 100 961.1
20260905193446 63 288 8.0 16.0 0.00 0.00 0.00 100 961.1
20260905193244 63 295 9.0 16.0 0.00 0.00 0.00 100 961.0
20260905193143 63 290 8.0 15.0 0.00 0.00 0.00 100 961.1
20260905193040 63 283 7.0 16.0 0.00 0.00 0.00 100 961.1
20260905192837 63 265 7.0 17.0 0.00 0.00 0.00 100 961.1
20260905192634 63 261 8.0 21.0 0.00 0.00 0.00 100 961.1
20260905192533 63 269 8.0 21.0 0.00 0.00 0.00 100 961.1
20260905192431 63 274 11.0 21.0 0.00 0.00 0.00 100 961.1
20260905192228 63 278 11.0 21.0 0.00 0.00 0.00 100 961.0
20260905192024 63 272 8.0 21.0 0.00 0.00 0.00 100 960.8
20260905191924 63 272 7.0 17.0 0.00 0.00 0.00 100 961.0
20260905191821 63 282 8.0 17.0 0.00 0.00 0.00 100 961.0
20260905191617 63 285 9.0 17.0 0.00 0.00 0.00 100 961.1
20260905191414 63 281 9.0 18.0 0.00 0.00 0.00 100 961.1
20260905191314 63 278 8.0 18.0 0.00 0.00 0.00 100 961.1
20260905191211 63 277 7.0 18.0 0.00 0.00 0.00 100 961.1
20260905191008 63 287 6.0 11.0 0.00 0.00 0.00 100 961.2
20260905190805 63 278 7.0 16.0 0.00 0.00 0.00 100 961.1
20260905190704 63 268 8.0 22.0 0.00 0.00 0.00 100 961.2
20260905190602 63 258 8.0 23.0 0.00 0.00 0.00 100 961.1
20260905190358 63 257 6.0 23.0 0.00 0.00 0.00 100 961.1
20260905190155 63 273 6.0 10.0 0.00 0.00 0.00 100 961.2
20260905190054 63 282 6.0 14.0 0.00 0.00 0.00 100 961.1
20260905185952 63 284 7.0 14.0 0.00 0.00 0.00 100 961.1
20260905185749 63 282 8.0 17.0 0.00 0.00 0.00 100 961.0
20260905185546 63 272 10.0 19.0 0.00 0.00 0.00 100 961.0
20260905185446 63 269 11.0 19.0 0.00 0.00 0.00 100 961.0
20260905185343 63 261 12.0 20.0 0.00 0.00 0.00 100 961.0
20260905185141 63 261 10.0 23.0 0.00 0.00 0.00 100 960.8
20260905184936 63 265 6.0 23.0 0.00 0.00 0.00 100 960.9
20260905184836 63 267 6.0 12.0 0.00 0.00 0.00 100 960.9
20260905184733 63 282 7.0 12.0 0.00 0.00 0.00 100 960.9
20260905184530 63 289 8.0 18.0 0.00 0.00 0.00 100 960.8
20260905184328 63 292 11.0 26.0 0.00 0.00 0.00 100 960.8
20260905184227 64 292 11.0 26.0 0.00 0.00 0.00 100 960.8
20260905184125 64 291 10.0 26.0 0.00 0.00 0.00 100 960.7
20260905183921 63 285 8.0 18.0 0.00 0.00 0.00 100 960.9
20260905183718 63 263 10.0 20.0 0.00 0.00 0.00 100 960.8
20260905183618 63 264 10.0 20.0 0.00 0.00 0.00 100 960.8
20260905183515 63 265 10.0 20.0 0.00 0.00 0.00 100 960.7
20260905183312 63 273 9.0 16.0 0.00 0.00 0.00 100 960.8
20260905183109 63 282 11.0 16.0 0.00 0.00 0.00 100 960.7
20260905183009 64 286 12.0 19.0 0.00 0.00 0.00 100 960.8
20260905182853 64 286 12.0 22.0 0.00 0.00 0.00 100 960.8
20260905182650 64 278 13.0 22.0 0.00 0.00 0.00 100 960.7
20260905182446 64 266 11.0 25.0 0.00 0.00 0.00 100 960.8
20260905182346 64 262 10.0 25.0 0.00 0.00 0.00 100 960.7
20260905182243 64 266 10.0 26.0 0.00 0.00 0.00 100 960.7
20260905182040 64 270 9.0 26.0 0.00 0.00 0.00 100 960.6
20260905181837 63 268 9.0 23.0 0.00 0.00 0.00 100 960.6
20260905181736 63 267 9.0 23.0 0.00 0.00 0.00 100 960.7
20260905181634 63 265 10.0 24.0 0.00 0.00 0.00 100 960.8
20260905181430 63 261 8.0 24.0 0.00 0.00 0.00 100 960.6
20260905181227 64 284 11.0 20.0 0.00 0.00 0.00 100 960.6
20260905181126 64 286 12.0 22.0 0.00 0.00 0.00 100 960.6
20260905181024 64 289 12.0 22.0 0.00 0.00 0.00 100 960.6
20260905180821 64 265 10.0 23.0 0.00 0.00 0.00 100 960.7
20260905180618 64 262 12.0 27.0 0.00 0.00 0.00 100 960.6
20260905180517 64 266 14.0 27.0 0.00 0.00 0.00 100 960.5
20260905180414 64 269 13.0 27.0 0.00 0.00 0.00 100 960.4
20260905180211 63 281 11.0 26.0 0.00 0.00 0.00 100 960.5
20260905180008 64 288 12.0 24.0 0.00 0.00 0.00 100 960.4
20260905175907 64 283 12.0 22.0 0.00 0.00 0.00 100 960.3
20260905175805 64 286 11.0 22.0 0.00 0.00 0.00 100 960.3
20260905175602 64 279 12.0 24.0 0.00 0.00 0.00 100 960.5
20260905175359 64 269 14.0 28.0 0.00 0.00 0.00 100 960.5
20260905175259 64 271 13.0 28.0 0.00 0.00 0.00 100 960.4
20260905175156 64 271 13.0 28.0 0.00 0.00 0.00 100 960.3
20260905174953 64 272 11.0 22.0 0.00 0.00 0.00 100 960.5
20260905174750 64 273 11.0 22.0 0.00 0.00 0.00 100 960.4
20260905174546 64 278 10.0 20.0 0.00 0.00 0.00 100 960.2
20260905174344 64 288 9.0 18.0 0.00 0.00 0.00 100 960.4
20260905174141 64 289 11.0 22.0 0.00 0.00 0.00 100 960.2
20260905174040 64 287 12.0 22.0 0.00 0.00 0.00 100 960.2
20260905173938 64 287 12.0 22.0 0.00 0.00 0.00 100 960.3
20260905173734 64 286 11.0 20.0 0.00 0.00 0.00 100 960.2
20260905173531 64 281 12.0 20.0 0.00 0.00 0.00 100 960.2
20260905173431 64 281 12.0 22.0 0.00 0.00 0.00 100 960.2
20260905173328 64 285 13.0 22.0 0.00 0.00 0.00 100 960.3
20260905173125 64 287 13.0 25.0 0.00 0.00 0.00 100 960.4
20260905172922 64 279 12.0 24.0 0.00 0.00 0.00 100 960.2
20260905172822 64 276 10.0 21.0 0.00 0.00 0.00 100 960.2
20260905172719 64 283 10.0 21.0 0.00 0.00 0.00 100 960.3
20260905172517 64 284 9.0 16.0 0.00 0.00 0.00 100 960.3
20260905172313 64 279 12.0 24.0 0.00 0.00 0.00 100 960.2
20260905172213 64 278 12.0 24.0 0.00 0.00 0.00 100 960.2
20260905172110 64 269 12.0 24.0 0.00 0.00 0.00 100 960.2
20260905171907 64 267 10.0 25.0 0.00 0.00 0.00 100 960.0
20260905171704 64 264 11.0 25.0 0.00 0.00 0.00 100 960.0
20260905171602 64 279 10.0 20.0 0.00 0.00 0.00 100 960.1
20260905171500 64 286 12.0 23.0 0.00 0.00 0.00 100 960.2
20260905171257 64 289 13.0 23.0 0.00 0.00 0.00 100 960.1
20260905171055 64 287 12.0 23.0 0.00 0.00 0.00 100 960.0
20260905170954 64 280 12.0 23.0 0.00 0.00 0.00 100 960.2
20260905170851 64 283 12.0 24.0 0.00 0.00 0.00 100 960.0
20260905170648 64 269 13.0 24.0 0.00 0.00 0.00 100 960.0
20260905170445 64 265 14.0 25.0 0.00 0.00 0.00 100 960.0
20260905170346 64 267 15.0 25.0 0.00 0.00 0.00 100 959.9
20260905170242 64 272 13.0 25.0 0.00 0.00 0.00 100 960.0
20260905170038 64 279 12.0 25.0 0.00 0.00 0.00 100 959.9
20260905165836 64 288 11.0 19.0 0.00 0.00 0.00 100 960.0
20260905165734 64 289 11.0 20.0 0.00 0.00 0.00 100 960.0
20260905165632 64 289 12.0 22.0 0.00 0.00 0.00 100 960.0
20260905165429 64 282 11.0 22.0 0.00 0.00 0.00 100 960.0
20260905165226 64 268 11.0 23.0 0.00 0.00 0.00 100 959.8
20260905165127 64 279 12.0 23.0 0.00 0.00 0.00 100 959.9
20260905165023 64 283 13.0 29.0 0.00 0.00 0.00 100 959.7
20260905164820 64 279 16.0 29.0 0.00 0.00 0.00 100 959.8
20260905164617 65 269 15.0 26.0 0.00 0.00 0.00 100 959.8
20260905164517 65 275 14.0 25.0 0.00 0.00 0.00 100 959.7
20260905164414 65 279 13.0 22.0 0.00 0.00 0.00 100 959.7
20260905164211 65 282 14.0 24.0 0.00 0.00 0.00 100 959.6
20260905164009 65 277 15.0 28.0 0.00 0.00 0.00 100 959.8
20260905163806 65 279 16.0 28.0 0.00 0.00 0.00 100 959.5
20260905163602 65 278 12.0 26.0 0.00 0.00 0.00 100 959.6
20260905163359 64 288 12.0 25.0 0.00 0.00 0.00 100 959.8
20260905163258 65 289 12.0 25.0 0.00 0.00 0.00 100 959.7
20260905163156 65 289 13.0 25.0 0.00 0.00 0.00 100 959.5
20260905162953 65 280 12.0 25.0 0.00 0.00 0.00 100 959.7
20260905162750 65 274 13.0 25.0 0.00 0.00 0.00 100 959.6
20260905162649 65 280 14.0 25.0 0.00 0.00 0.00 100 959.7
20260905162547 65 285 15.0 26.0 0.00 0.00 0.00 100 959.4
20260905162343 65 294 12.0 26.0 0.00 0.00 0.00 100 959.4
20260905162141 65 285 9.0 22.0 0.00 0.00 0.00 100 959.6
20260905162040 65 281 9.0 20.0 0.00 0.00 0.00 100 959.4
20260905161938 65 286 10.0 25.0 0.00 0.00 0.00 100 959.5
20260905161735 65 288 14.0 31.0 0.00 0.00 0.00 100 959.5
20260905161532 65 280 14.0 31.0 0.00 0.00 0.00 100 959.3
20260905161431 65 272 12.0 24.0 0.00 0.00 0.00 100 959.3
20260905161328 65 275 13.0 24.0 0.00 0.00 0.00 100 959.3
20260905161125 65 272 11.0 23.0 0.00 0.00 0.00 100 959.3
20260905160923 65 283 11.0 28.0 0.00 0.00 0.00 100 959.3
20260905160822 65 283 11.0 28.0 0.00 0.00 0.00 100 959.3
20260905160719 65 284 11.0 28.0 0.00 0.00 0.00 100 959.0
20260905160516 65 282 12.0 20.0 0.00 0.00 0.00 100 959.3
20260905160313 66 287 14.0 23.0 0.00 0.00 0.00 100 959.2
20260905160212 66 287 14.0 22.0 0.00 0.00 0.00 100 959.4
20260905160109 66 289 13.0 22.0 0.00 0.00 0.00 100 959.1
20260905155906 66 281 14.0 24.0 0.00 0.00 0.00 100 959.3
20260905155703 66 281 15.0 25.0 0.00 0.00 0.00 100 959.3
20260905155602 66 283 15.0 25.0 0.00 0.00 0.00 100 959.1
20260905155500 66 285 14.0 25.0 0.00 0.00 0.00 100 959.2
20260905155257 66 288 14.0 24.0 0.00 0.00 0.00 100 959.3
20260905155054 66 289 13.0 25.0 0.00 0.00 0.00 100 959.0
20260905154940 66 289 13.0 25.0 0.00 0.00 0.00 100 959.2
20260905154837 66 288 13.0 25.0 0.00 0.00 0.00 100 959.1
20260905154634 66 285 12.0 24.0 0.00 0.00 0.00 100 959.0
20260905154432 66 285 13.0 24.0 0.00 0.00 0.00 100 959.1
20260905154332 66 289 15.0 27.0 0.00 0.00 0.00 100 959.1
20260905154229 66 290 15.0 29.0 0.00 0.00 0.00 100 959.0
20260905154027 66 289 14.0 29.0 0.00 0.00 0.00 100 959.0
20260905153823 66 285 13.0 29.0 0.00 0.00 0.00 100 959.0
20260905153723 65 285 13.0 27.0 0.00 0.00 0.00 100 959.1
20260905153620 65 285 12.0 27.0 0.00 0.00 0.00 100 959.1
20260905153416 65 286 10.0 27.0 0.00 0.00 0.00 100 958.9
20260905153213 65 282 10.0 17.0 0.00 0.00 0.00 100 959.1
20260905153010 65 276 8.0 19.0 0.00 0.00 0.00 100 959.1
20260905152806 66 282 11.0 23.0 0.00 0.00 0.00 100 959.0
20260905152603 66 289 14.0 24.0 0.00 0.00 0.00 100 959.1
20260905152503 66 289 14.0 24.0 0.00 0.00 0.00 100 958.9
20260905152400 66 290 12.0 24.0 0.00 0.00 0.00 100 959.0
20260905152157 66 285 8.0 16.0 0.00 0.00 0.00 100 959.0
20260905151953 66 285 9.0 15.0 0.00 0.00 0.00 100 959.0
20260905151750 66 290 10.0 18.0 0.00 0.00 0.00 100 959.0
20260905151546 66 294 11.0 18.0 0.00 0.00 0.00 100 958.9
20260905151344 65 292 11.0 18.0 0.00 0.00 0.00 100 958.9
20260905151244 66 288 11.0 18.0 0.00 0.00 0.00 100 959.0
20260905151141 66 281 10.0 18.0 0.00 0.00 0.00 100 959.0
20260905150938 66 284 9.0 18.0 0.00 0.00 0.00 100 958.9
20260905150735 66 291 10.0 17.0 0.00 0.00 0.00 100 958.9
20260905150634 66 295 10.0 17.0 0.00 0.00 0.00 100 959.0
20260905150532 65 295 10.0 17.0 0.00 0.00 0.00 100 959.0
20260905150329 65 289 9.0 16.0 0.00 0.00 0.00 100 959.0
20260905150126 66 282 7.0 14.0 0.00 0.00 0.00 100 959.0
20260905150025 66 278 7.0 14.0 0.00 0.00 0.00 100 959.0
20260905145923 66 281 7.0 16.0 0.00 0.00 0.00 100 959.0
20260905145720 66 255 6.0 19.0 0.00 0.00 0.00 100 959.0
20260905145517 66 244 5.0 19.0 0.00 0.00 0.00 100 958.9
20260905145416 66 250 5.0 14.0 0.00 0.00 0.00 100 958.8
20260905145314 66 256 5.0 14.0 0.00 0.00 0.00 100 958.8
20260905145110 67 271 5.0 10.0 0.00 0.00 0.00 100 958.9
20260905144907 67 273 5.0 13.0 0.00 0.00 0.00 100 959.0
20260905144806 66 267 5.0 19.0 0.00 0.00 0.00 100 958.9
20260905144704 66 259 5.0 19.0 0.00 0.00 0.00 100 958.9
20260905144500 66 260 5.0 19.0 0.00 0.00 0.00 100 958.8
20260905144257 67 274 6.0 17.0 0.00 0.00 0.00 100 958.9
20260905144157 67 286 6.0 16.0 0.00 0.00 0.00 100 958.9
20260905144055 66 290 7.0 13.0 0.00 0.00 0.00 100 958.9
20260905143852 66 288 8.0 13.0 0.00 0.00 0.00 100 958.9
20260905143648 66 287 7.0 16.0 0.00 0.00 0.00 100 958.9
20260905143548 66 285 7.0 16.0 0.00 0.00 0.00 100 958.9
20260905143445 65 288 7.0 16.0 0.00 0.00 0.00 100 959.0
20260905143242 65 288 10.0 19.0 0.00 0.00 0.00 100 958.9
20260905143039 65 287 12.0 19.0 0.00 0.00 0.00 100 959.0
20260905142939 65 286 12.0 19.0 0.00 0.00 0.00 100 958.9
20260905142837 65 288 12.0 17.0 0.00 0.00 0.00 100 958.9
20260905142634 65 289 12.0 20.0 0.00 0.00 0.00 100 958.9
20260905142431 65 283 12.0 20.0 0.00 0.00 0.00 100 959.0
20260905142330 65 282 12.0 19.0 0.00 0.00 0.00 100 958.9
20260905142228 65 281 9.0 19.0 0.00 0.00 0.00 100 958.9
20260905142025 65 281 8.0 18.0 0.00 0.00 0.00 100 959.0
20260905141822 65 290 9.0 18.0 0.00 0.00 0.00 100 959.1
20260905141722 65 290 10.0 18.0 0.00 0.00 0.00 100 959.1
20260905141619 65 288 9.0 15.0 0.00 0.00 0.00 100 959.0
20260905141416 66 263 9.0 18.0 0.00 0.00 0.00 100 959.2
20260905141213 65 277 9.0 18.0 0.00 0.00 0.00 100 959.1
20260905141112 65 279 8.0 18.0 0.00 0.00 0.00 100 959.1
20260905141010 65 281 6.0 15.0 0.00 0.00 0.00 100 959.1
20260905140808 65 253 4.0 12.0 0.00 0.00 0.00 100 959.2
20260905140604 65 280 6.0 12.0 0.00 0.00 0.00 100 959.2
20260905140503 65 282 6.0 14.0 0.00 0.00 0.00 100 959.2
20260905140401 65 285 8.0 14.0 0.00 0.00 0.00 100 959.2
20260905140158 65 290 13.0 22.0 0.00 0.00 0.00 100 959.1
20260905135954 66 293 13.0 22.0 0.00 0.00 0.00 100 958.9
20260905135854 66 289 12.0 22.0 0.00 0.00 0.00 100 958.9
20260905135751 66 285 12.0 22.0 0.00 0.00 0.00 100 958.9
20260905135548 65 283 15.0 24.0 0.00 0.00 0.00 100 959.1
20260905135345 65 290 15.0 24.0 0.00 0.00 0.00 100 959.0
20260905135142 65 289 14.0 24.0 0.00 0.00 0.00 100 958.9
20260905134939 65 282 11.0 23.0 0.00 0.00 0.00 100 959.1
20260905134736 65 288 11.0 19.0 0.00 0.00 0.00 100 959.1
20260905134533 65 294 10.0 19.0 0.00 0.00 0.00 100 959.1
20260905134330 65 292 8.0 15.0 0.00 0.00 0.00 100 959.2
20260905134126 64 291 9.0 17.0 0.00 0.00 0.00 100 959.1
20260905134026 65 289 9.0 17.0 0.00 0.00 0.00 100 959.0
20260905133924 65 286 11.0 20.0 0.00 0.00 0.00 100 959.2
20260905133721 65 289 11.0 20.0 0.00 0.00 0.00 100 959.2
20260905133518 65 289 10.0 19.0 0.00 0.00 0.00 100 959.1
20260905133417 65 290 10.0 19.0 0.00 0.00 0.00 100 959.1
20260905133314 65 290 10.0 19.0 0.00 0.00 0.00 100 959.2
20260905133111 65 288 11.0 19.0 0.00 0.00 0.00 100 959.1
20260905132908 65 287 11.0 19.0 0.00 0.00 0.00 100 959.2
20260905132705 66 287 8.0 15.0 0.00 0.00 0.00 100 959.0
20260905132502 66 286 6.0 16.0 0.00 0.00 0.00 100 959.2
20260905132258 66 262 5.0 23.0 0.00 0.00 0.00 100 959.2
20260905132158 67 251 4.0 23.0 0.00 0.00 0.00 100 959.0
20260905131905 66 265 8.0 23.0 0.00 0.00 0.00 100 959.3
20260905131702 66 264 9.0 21.0 0.00 0.00 0.00 100 959.2
20260905131602 66 253 8.0 21.0 0.00 0.00 0.00 100 959.2
20260905131459 66 261 7.0 21.0 0.00 0.00 0.00 100 959.3
20260905131256 66 282 10.0 21.0 0.00 0.00 0.00 100 959.3
20260905131053 65 292 11.0 21.0 0.00 0.00 0.00 100 959.2
20260905130952 65 292 9.0 21.0 0.00 0.00 0.00 100 959.2
20260905130850 65 285 7.0 16.0 0.00 0.00 0.00 100 959.1
20260905130646 66 268 6.0 14.0 0.00 0.00 0.00 100 959.2
20260905130443 66 281 8.0 14.0 0.00 0.00 0.00 100 959.1
20260905130329 65 286 9.0 16.0 0.00 0.00 0.00 100 959.2
20260905130226 65 289 10.0 16.0 0.00 0.00 0.00 100 959.2
20260905130023 65 290 12.0 21.0 0.00 0.00 0.00 100 959.1
20260905125820 65 287 11.0 21.0 0.00 0.00 0.00 100 958.9
20260905125719 65 288 11.0 19.0 0.00 0.00 0.00 100 959.2
20260905125617 65 289 10.0 19.0 0.00 0.00 0.00 100 959.2
20260905125414 64 287 9.0 19.0 0.00 0.00 0.00 100 959.1
20260905125210 65 266 5.0 16.0 0.00 0.00 0.00 100 959.2
20260905125110 66 264 6.0 16.0 0.00 0.00 0.00 100 959.2
20260905125007 66 278 6.0 16.0 0.00 0.00 0.00 100 959.3
20260905124804 65 285 6.0 16.0 0.00 0.00 0.00 100 959.1
20260905124601 65 283 6.0 18.0 0.00 0.00 0.00 100 959.2
20260905124500 65 286 6.0 18.0 0.00 0.00 0.00 100 959.3
20260905124358 65 289 8.0 18.0 0.00 0.00 0.00 100 959.3
20260905124154 65 290 9.0 20.0 0.00 0.00 0.00 100 959.3
20260905123951 65 284 7.0 20.0 0.00 0.00 0.00 100 959.1
20260905123851 66 258 5.0 14.0 0.00 0.00 0.00 100 959.2
20260905123748 66 266 5.0 13.0 0.00 0.00 0.00 100 959.4
20260905123545 66 274 4.0 13.0 0.00 0.00 0.00 100 959.4
20260905123342 67 288 4.0 11.0 0.00 0.00 0.00 100 959.2
20260905123139 67 299 3.0 11.0 0.00 0.00 0.00 100 959.1
20260905122936 66 292 4.0 12.0 0.00 0.00 0.00 100 959.2
20260905122732 65 284 6.0 13.0 0.00 0.00 0.00 100 959.2
20260905122632 66 283 6.0 15.0 0.00 0.00 0.00 100 959.3
20260905122529 66 288 6.0 15.0 0.00 0.00 0.00 100 959.4
20260905122326 66 305 5.0 15.0 0.00 0.00 0.00 100 959.2
20260905122123 66 270 4.0 10.0 0.00 0.00 0.00 100 959.3
20260905122023 67 235 3.0 10.0 0.00 0.00 0.00 100 959.4
20260905121919 67 255 5.0 14.0 0.00 0.00 0.00 100 959.4
20260905121716 66 284 8.0 17.0 0.00 0.00 0.00 100 959.4
20260905121513 65 275 10.0 17.0 0.00 0.00 0.00 100 959.2
20260905121412 65 268 7.0 17.0 0.00 0.00 0.00 100 959.3
20260905121310 66 257 5.0 16.0 0.00 0.00 0.00 100 959.4
20260905121106 67 225 4.0 16.0 0.00 0.00 0.00 100 959.4
20260905120903 67 223 2.0 16.0 0.00 0.00 0.00 100 959.2
20260905120659 67 249 2.0 10.0 0.00 0.00 0.00 100 959.3
20260905120456 67 237 3.0 10.0 0.00 0.00 0.00 100 959.3
20260905120253 66 265 4.0 10.0 0.00 0.00 0.00 100 959.4
20260905120152 66 272 5.0 12.0 0.00 0.00 0.00 100 959.3
20260905120050 65 286 6.0 15.0 0.00 0.00 0.00 100 959.3
20260905115846 64 285 9.0 17.0 0.00 0.00 0.00 100 959.3
20260905115643 64 275 5.0 17.0 0.00 0.00 0.00 100 959.2
20260905115543 65 258 3.0 18.0 0.00 0.00 0.00 100 959.2
20260905115440 66 264 2.0 7.0 0.00 0.00 0.00 100 959.2
20260905115236 65 299 5.0 14.0 0.00 0.00 0.00 100 959.3
20260905115034 64 287 8.0 20.0 0.00 0.00 0.00 100 959.4
20260905114933 64 284 9.0 20.0 0.00 0.00 0.00 100 959.3
20260905114831 65 270 9.0 20.0 0.00 0.00 0.00 100 959.2
20260905114628 65 258 6.0 15.0 0.00 0.00 0.00 100 959.3
20260905114424 65 254 8.0 16.0 0.00 0.00 0.00 100 959.3
20260905114324 65 248 7.0 17.0 0.00 0.00 0.00 100 959.3
20260905114222 66 251 5.0 17.0 0.00 0.00 0.00 100 959.3
20260905114019 66 249 3.0 12.0 0.00 0.00 0.00 100 959.3
20260905113815 66 247 4.0 16.0 0.00 0.00 0.00 100 959.3
20260905113715 66 261 4.0 16.0 0.00 0.00 0.00 100 959.3
20260905113613 66 265 4.0 16.0 0.00 0.00 0.00 100 959.3
20260905113410 66 266 3.0 8.0 0.00 0.00 0.00 100 959.2
20260905113206 66 264 3.0 10.0 0.00 0.00 0.00 100 959.3
20260905113106 66 281 4.0 10.0 0.00 0.00 0.00 100 959.3
20260905113004 65 279 5.0 10.0 0.00 0.00 0.00 100 959.3
20260905112800 65 285 5.0 11.0 0.00 0.00 0.00 100 959.4
20260905112557 65 242 4.0 12.0 0.00 0.00 0.00 100 959.5
20260905112457 64 259 5.0 14.0 0.00 0.00 0.00 100 959.4
20260905112355 64 261 6.0 14.0 0.00 0.00 0.00 100 959.4
20260905112152 63 291 9.0 16.0 0.00 0.00 0.00 100 959.4
20260905111949 63 303 10.0 16.0 0.00 0.00 0.00 100 959.6
20260905111849 63 302 7.0 16.0 0.00 0.00 0.00 100 959.3
20260905111747 64 306 6.0 16.0 0.00 0.00 0.00 100 959.4
20260905111543 64 306 7.0 19.0 0.00 0.00 0.00 100 959.5
20260905111339 63 300 10.0 19.0 0.00 0.00 0.00 100 959.6
20260905111238 64 297 8.0 19.0 0.00 0.00 0.00 100 959.3
20260905111136 64 289 6.0 17.0 0.00 0.00 0.00 100 959.5
20260905110932 64 285 7.0 20.0 0.00 0.00 0.00 100 959.5
20260905110729 64 278 9.0 26.0 0.00 0.00 0.00 100 959.5
20260905110629 64 267 8.0 26.0 0.00 0.00 0.00 100 959.3
20260905110527 65 256 5.0 26.0 0.00 0.00 0.00 100 959.3
20260905110324 66 299 5.0 13.0 0.00 0.00 0.00 100 959.4
20260905110120 63 316 7.0 13.0 0.00 0.00 0.00 100 959.5
20260905110019 64 331 9.0 16.0 0.00 0.00 0.00 100 959.4
20260905105917 64 329 9.0 16.0 0.00 0.00 0.00 100 959.4
20260905105714 63 334 9.0 19.0 0.00 0.00 0.00 100 959.4
20260905105511 63 328 10.0 19.0 0.00 0.00 0.00 100 959.2